Terug naar catalogus

QPS-SAR-11 YAMATSUMI

ActiefWetenschapVLEO
NORAD 64340·PAYLOAD·🇯🇵 Japan

Gelanceerd Jun 11, 2025 vanaf Rocket Lab Launch Complex 1

Loading…

Volgende Passages (komende 24 uur)

TLE

VersSource: Space-Track

Epoch: Sep 14, 2026, 12:00 UTC

1 64340U 25125A   26257.50034526  .00003717  00000-0  29067-3 0  9994
2 64340  42.0079  59.0608 0010707 338.5029  21.5347 15.02262389 69054

Volg QPS-SAR-11 YAMATSUMI in realtime met AllMySat

Download on the App Store